Temperature
16 16 16 16 16 16 16 16 16 16 15 15 16 16 15 15 15 15 15 15 15 15 15 15 15 15 15 15 16 16 16 16 16 16 16 16 16 16 16 16 16 17 17
16 16 16 16 16 16 16 16 16 15 15 15 15 15 15 15 15 15 15 15 15 15 15 15 15 15 15 15 15 15 15 15 15 16 16 16 16 16 16 16 16 16 16
16 16 16 16 16 16 15 15 15 15 15 15 15 15 15 15 15 15 15 15 15 15 15 15 15 15 15 15 15 15 15 15 15 15 16 16 16 16 16 16 16 16 16
16 16 16 16 16 16 15 15 15 15 15 15 15 15 15 15 15 14 14 14 14 14 15 14 14 14 14 14 15 15 15 15 15 15 15 15 16 16 16 16 16 16 16
16 16 16 16 16 16 15 15 15 15 15 15 15 15 15 14 14 14 14 14 14 14 14 14 14 14 14 14 14 14 14 14 14 15 15 15 15 15 15 15 16 16 16
16 16 16 16 16 16 15 15 15 15 15 15 15 15 15 14 14 14 14 14 14 14 14 14 14 14 14 14 14 14 14 14 14 14 14 15 15 15 15 15 15 15 15
16 16 16 16 16 16 16 15 15 15 15 15 15 15 14 14 14 14 14 14 14 14 14 14 14 14 14 14 14 14 14 14 14 14 14 14 14 14 15 15 15 15 15
16 16 16 16 16 16 15 15 15 15 15 15 15 15 14 14 14 14 14 14 14 14 14 14 14 13 14 14 14 14 14 14 14 13 13 14 14 14 14 14 15 15 15
16 15 15 15 15 15 15 15 15 15 15 15 15 15 14 14 14 14 14 14 13 13 13 13 13 13 13 13 13 13 13 14 13 13 13 13 13 13 14 14 14 14 14
16 15 15 15 15 15 15 15 15 15 15 15 15 15 14 14 14 14 14 13 13 13 13 13 13 13 13 13 13 13 13 13 13 13 13 13 13 13 13 13 13 14 14
15 15 15 15 15 15 15 15 15 15 15 15 15 15 14 14 14 14 14 13 13 13 13 13 13 13 13 13 13 13 13 13 13 13 13 13 13 13 13 13 13 13 13
15 15 15 15 15 15 15 15 15 15 15 14 14 14 14 14 14 14 13 13 13 13 13 13 13 13 13 12 12 12 12 12 13 13 13 13 13 13 13 13 13 13 13
16 16 15 15 15 15 15 15 15 15 14 14 14 14 14 14 14 13 13 13 13 13 13 13 13 12 12 12 12 12 12 12 12 12 12 12 12 12 12 12 13 12 12
16 16 15 15 15 15 15 15 15 14 14 14 14 14 14 14 13 13 13 13 13 13 13 13 12 12 12 12 12 12 12 12 12 12 12 12 12 12 12 12 12 12 12
16 16 15 15 15 15 15 15 14 14 14 14 14 14 14 13 13 13 13 13 12 12 12 12 12 12 12 12 12 12 12 12 12 12 12 12 12 12 12 12 12 12 12
16 16 15 15 15 15 15 15 14 14 14 14 14 14 13 13 13 13 13 13 12 12 12 12 12 12 12 12 12 12 12 12 12 12 12 12 12 12 12 12 12 12 12
16 16 16 15 15 15 15 14 14 14 14 14 13 13 13 13 13 13 13 13 12 12 12 12 12 12 12 12 12 12 12 11 11 12 12 12 11 11 11 11 11 11 11
16 16 16 15 15 15 15 14 14 14 14 14 13 13 13 13 13 13 12 12 12 12 12 12 12 12 12 11 11 11 11 11 11 11 11 11 11 11 11 11 11 11 11
16 16 16 15 15 15 14 14 14 14 14 13 13 13 13 13 13 12 12 12 12 12 12 11 11 11 11 11 11 11 11 11 11 11 11 11 11 11 11 10 10 10 10
16 16 15 15 15 15 14 14 14 14 13 13 13 13 13 13 12 12 12 12 12 12 12 11 11 11 11 11 11 11 11 11 11 11 11 10 10 10 10 10 10 10 10
16 15 15 15 15 14 14 14 14 14 13 13 13 13 13 12 12 12 12 12 12 11 11 11 11 11 11 11 11 11 11 11 11 11 10 10 10 10 10 10 10 9 9
15 15 15 15 15 15 14 14 14 13 13 13 13 13 13 12 12 12 12 12 11 11 11 11 11 11 11 10 10 10 10 10 10 10 10 10 10 10 9 9 9 9 9
15 15 15 15 15 14 14 14 13 13 13 13 13 12 12 12 12 12 12 11 11 11 11 11 11 10 10 10 10 10 10 10 9 9 9 9 9 9 9 9 9 8 8
15 15 15 14 14 14 14 13 13 13 13 13 12 12 12 12 12 11 11 11 11 11 11 10 10 10 10 10 9 9 9 9 9 9 9 9 9 9 9 8 8 8 8
15 14 14 14 14 14 13 13 13 13 12 12 12 12 11 11 11 11 11 11 11 11 10 10 10 10 9 9 9 9 9 8 8 9 8 8 8 8 8 8 8 7 7
14 14 14 14 13 13 13 13 12 12 12 12 12 11 11 11 11 10 10 10 10 10 10 9 9 9 9 9 9 8 8 8 8 8 8 7 7 7 7 7 7 7 7
Wind_Speed
3 4 4 5 6 6 6 5 6 7 7 8 8 8 8 8 9 9 9 11 11 10 10 10 10 10 11 11 11 11 11 11 11 10 10 10 9 7 4 1 1 0 1
4 4 4 5 6 6 6 6 6 6 5 6 7 7 7 7 8 9 9 10 12 12 12 11 11 11 11 11 11 11 11 11 11 11 10 10 10 8 5 3 1 1 1
5 5 4 4 5 6 7 7 7 6 5 5 6 6 7 7 8 8 9 10 11 12 13 13 12 12 12 11 12 12 12 11 11 11 11 11 10 8 5 5 4 3 2
6 6 4 4 5 6 6 4 4 5 5 5 5 5 6 7 8 8 9 10 10 10 12 13 13 13 13 13 12 12 12 11 11 11 11 11 11 9 7 6 5 4 3
7 7 5 5 6 6 5 4 4 4 4 5 5 5 5 5 6 8 8 10 10 11 11 12 13 14 14 14 13 13 12 12 11 11 11 11 12 10 9 8 6 6 5
6 7 6 6 6 4 4 4 5 5 4 4 5 6 5 5 5 6 6 7 9 10 11 11 11 11 13 14 14 14 13 12 11 11 11 11 11 10 9 8 7 7 6
6 6 5 5 5 4 4 4 4 5 4 3 3 4 4 5 6 5 6 6 7 9 10 10 10 10 10 13 15 14 14 12 11 11 11 11 11 10 9 8 7 7 7
5 5 5 4 4 4 5 4 3 3 3 3 3 3 3 4 4 5 4 5 5 7 8 9 9 10 10 11 13 15 14 12 12 11 11 11 11 10 10 10 8 7 7
4 5 5 5 4 3 3 3 3 4 2 3 3 3 3 1 2 3 4 4 5 4 5 6 8 9 10 11 11 13 15 13 12 12 11 11 10 10 10 10 8 7 7
3 4 5 5 4 3 3 2 2 2 3 2 2 3 2 3 2 1 3 4 4 4 5 5 6 8 10 10 11 12 14 14 13 11 11 10 10 10 10 10 8 7 7
3 3 4 4 4 3 3 3 3 3 2 2 2 1 3 3 2 2 1 4 4 3 3 4 5 6 8 10 10 11 12 13 12 12 11 10 11 11 10 10 9 8 7
1 2 3 3 3 3 3 3 3 3 3 3 2 2 2 2 1 2 1 1 2 3 3 3 4 5 7 8 9 10 11 11 11 11 11 10 10 11 10 10 9 8 7
0 0 2 2 2 2 3 3 3 2 2 2 2 1 1 1 2 3 2 1 1 3 3 3 3 5 6 7 9 10 10 10 9 9 9 10 9 9 10 9 9 8 8
2 2 2 2 2 3 3 3 3 2 2 2 2 2 1 1 1 2 3 2 1 2 3 3 3 4 6 7 9 9 9 9 8 8 8 8 8 8 8 8 8 8 8
2 3 3 3 2 3 3 3 2 2 2 2 1 2 1 1 1 1 2 3 3 0 2 3 3 4 6 7 8 8 8 8 8 8 8 7 8 8 7 7 7 7 7
3 3 3 3 3 3 3 3 2 2 2 1 1 2 1 0 1 1 1 1 2 3 2 2 3 3 6 6 8 8 8 8 8 8 8 8 8 8 7 7 7 7 7
4 4 4 3 3 2 3 3 2 2 2 1 1 2 1 1 1 1 1 1 1 2 2 2 2 3 3 4 7 8 8 8 8 8 8 8 8 8 7 7 6 7 7
4 4 4 4 3 3 3 3 3 3 3 2 1 1 0 1 1 1 1 1 1 2 2 2 2 3 3 4 4 5 7 7 7 8 9 8 8 8 8 7 7 7 8
3 3 3 4 3 3 3 3 3 3 3 2 2 2 1 1 0 0 1 0 0 1 1 1 2 2 2 3 3 4 4 5 6 7 8 8 8 9 8 8 7 8 8
4 3 3 3 3 3 3 3 3 3 2 1 1 1 1 2 2 2 1 1 1 1 1 0 1 2 3 3 2 3 4 3 4 6 7 7 8 8 9 8 8 9 9
4 3 3 2 2 3 3 4 4 4 3 2 1 1 1 2 2 2 1 2 2 1 0 0 1 2 3 2 3 2 3 4 4 3 3 4 5 6 8 9 9 9 9
3 3 3 3 3 2 4 6 5 4 3 3 2 1 1 1 2 2 2 2 2 2 2 1 1 2 4 3 2 2 2 3 4 3 2 4 3 4 6 7 8 9 9
4 3 3 3 3 3 4 6 6 4 4 3 3 1 1 1 1 1 1 1 1 2 3 3 3 4 4 4 2 2 2 2 4 4 2 4 3 4 6 7 9 10 10
4 4 3 3 3 3 5 5 6 4 3 2 2 2 2 2 1 1 1 1 1 2 2 2 3 4 4 3 3 3 3 3 4 3 1 3 4 4 5 7 9 9 9
4 3 3 3 3 3 4 5 6 3 2 2 2 2 2 2 3 1 2 1 2 3 3 2 3 4 5 5 2 1 1 1 3 3 1 2 3 4 4 4 7 8 9
4 3 3 2 3 3 3 5 6 4 3 2 1 2 3 3 3 2 2 2 2 4 2 2 3 4 4 4 3 1 2 1 2 3 2 1 3 3 4 3 4 6 8
Wind_Direction
58 42 37 40 42 49 57 61 66 65 61 59 63 67 63 61 58 51 40 43 44 44 43 43 43 42 39 36 35 32 30 26 24 23 21 15 8 0 353 345 352 100 170
79 64 50 46 44 52 61 68 70 71 64 63 60 61 60 59 56 51 45 39 42 44 42 39 37 38 36 33 33 31 28 24 22 23 20 17 9 9 22 33 31 37 85
86 83 69 54 49 63 71 71 66 68 66 62 53 51 52 49 51 47 43 39 37 40 42 39 36 34 33 33 32 29 27 23 22 24 22 18 10 17 29 46 43 44 54
88 85 75 58 61 73 74 74 66 68 60 58 52 40 43 44 45 47 45 42 39 38 37 39 38 35 33 32 29 27 24 21 23 23 23 22 19 25 37 44 45 46 47
84 85 76 66 74 76 67 76 64 76 74 65 62 49 39 41 40 47 43 41 40 41 39 36 36 34 32 29 27 24 20 19 22 22 24 25 26 31 40 42 42 46 52
90 90 80 70 76 76 64 69 74 64 71 71 72 57 42 39 44 40 35 37 37 38 38 37 33 28 29 28 26 23 20 16 20 23 25 27 28 33 38 41 43 46 52
94 93 88 76 75 81 81 85 89 71 51 38 68 45 27 36 44 35 34 38 34 32 36 35 32 29 25 24 23 22 20 20 24 26 27 28 30 32 32 34 38 45 51
89 97 96 88 83 87 78 74 86 89 49 34 89 85 28 3 10 22 21 30 23 27 31 29 28 26 23 21 18 20 23 25 30 30 30 32 34 33 32 31 34 41 49
80 92 101 101 89 88 93 83 88 105 101 40 54 118 125 209 324 347 10 17 13 18 16 18 22 19 17 17 14 15 22 26 29 30 30 31 33 33 30 28 33 44 50
78 96 105 105 99 91 94 87 88 99 117 96 53 55 100 145 137 346 339 350 5 17 5 11 10 12 13 12 11 13 19 20 24 27 29 31 33 33 32 29 36 49 51
54 92 110 110 104 97 101 92 86 85 97 120 121 104 82 68 85 131 310 329 345 345 350 355 360 5 7 8 6 10 16 19 22 25 28 30 30 30 31 31 35 40 42
28 76 115 116 116 110 107 105 99 96 94 98 103 117 135 130 139 131 162 297 316 315 329 342 353 355 358 2 2 4 10 15 19 24 26 27 27 26 26 27 28 27 26
226 201 127 130 126 128 121 114 101 97 106 110 118 122 136 148 151 146 142 176 322 315 325 329 336 346 351 355 355 356 2 8 14 20 23 23 21 20 19 19 21 21 19
207 179 143 140 139 136 126 118 102 101 103 109 107 113 107 109 144 153 155 145 50 342 338 316 325 341 349 351 352 358 1 5 9 11 13 12 12 12 12 13 15 14 11
190 164 144 140 132 132 131 123 112 111 107 103 111 111 103 82 120 148 153 154 148 161 304 306 318 328 341 345 351 359 359 3 7 6 3 1 1 1 360 3 6 4 1
168 155 147 142 141 131 125 123 116 110 107 89 104 100 85 83 89 95 135 144 149 162 219 274 278 307 327 339 354 360 356 358 2 1 356 354 354 353 354 0 6 8 5
165 168 163 157 159 149 140 136 136 127 117 89 70 95 68 80 90 82 108 118 131 145 189 284 291 309 331 339 343 352 353 352 354 359 356 354 354 354 357 0 2 1 359
167 168 159 161 169 164 154 158 162 151 149 143 139 108 49 90 76 76 107 130 158 171 175 255 307 322 320 324 330 338 343 345 346 351 355 354 354 353 354 353 352 349 346
161 156 158 170 174 169 168 172 167 165 169 172 177 174 205 146 191 219 148 145 178 127 154 192 291 310 312 327 339 339 342 341 341 342 349 355 356 354 352 349 347 343 339
156 164 174 178 178 173 171 172 163 159 163 164 182 197 208 201 214 212 194 198 153 103 94 153 293 309 308 313 339 334 334 338 334 341 347 346 349 353 351 347 343 339 335
167 169 162 170 174 168 177 167 166 167 165 164 202 238 224 222 230 213 205 195 163 151 136 282 299 318 315 322 315 309 315 319 319 333 336 339 340 342 339 338 337 336 335
162 154 163 169 170 189 183 174 168 168 169 171 196 249 267 272 273 261 241 204 178 180 198 207 252 267 282 276 284 299 305 334 320 326 334 315 329 317 320 325 327 326 325
166 165 178 174 184 205 187 178 175 165 169 182 196 214 266 298 285 265 309 307 279 265 222 195 214 245 259 256 259 289 276 263 273 296 314 300 307 302 306 313 322 327 326
170 176 183 190 195 216 198 182 171 156 157 181 195 199 212 263 255 204 160 12 311 302 271 229 220 246 255 251 230 241 250 273 284 293 288 288 300 293 307 309 318 324 325
174 180 183 186 197 229 201 183 162 153 163 203 215 207 203 231 255 218 147 214 301 310 311 282 276 295 311 311 296 44 334 317 303 299 279 265 295 301 297 296 315 326 324
180 172 172 187 199 219 203 187 170 161 176 213 237 247 238 235 255 233 183 192 255 281 297 322 330 332 333 328 316 233 216 253 281 293 286 263 293 316 309 291 302 321 324
Height
1558 1558 1558 1557 1557 1557 1557 1557 1557 1558 1558 1558 1559 1559 1559 1559 1558 1558 1558 1557 1556 1556 1555 1554 1553 1552 1551 1550 1549 1548 1547 1546 1544 1543 1541 1539 1538 1535 1534 1535 1538 1539 1541
1559 1559 1559 1559 1559 1558 1558 1559 1559 1559 1559 1560 1560 1560 1560 1560 1560 1559 1558 1558 1557 1556 1555 1554 1554 1553 1552 1551 1550 1548 1547 1546 1544 1542 1541 1538 1535 1532 1531 1532 1536 1538 1539
1561 1560 1560 1560 1560 1560 1560 1560 1560 1560 1561 1561 1561 1561 1561 1561 1561 1560 1560 1559 1558 1557 1556 1555 1554 1553 1552 1551 1550 1548 1547 1545 1544 1542 1540 1538 1534 1530 1529 1531 1535 1537 1538
1561 1561 1561 1561 1561 1561 1561 1561 1561 1561 1562 1562 1562 1562 1562 1562 1562 1562 1561 1560 1559 1558 1557 1556 1555 1553 1552 1551 1550 1548 1546 1545 1543 1542 1540 1537 1534 1531 1530 1533 1535 1536 1537
1563 1562 1562 1562 1562 1562 1562 1562 1562 1563 1563 1563 1563 1563 1563 1563 1563 1563 1562 1561 1560 1559 1558 1556 1555 1554 1552 1551 1549 1548 1546 1544 1543 1541 1540 1538 1535 1533 1533 1534 1535 1535 1536
1564 1564 1564 1563 1563 1563 1563 1563 1563 1564 1564 1564 1564 1564 1564 1564 1564 1564 1563 1562 1561 1560 1558 1557 1556 1554 1553 1551 1549 1547 1545 1543 1542 1541 1539 1538 1537 1536 1535 1535 1535 1535 1535
1565 1565 1565 1565 1565 1565 1564 1564 1564 1565 1565 1565 1565 1565 1566 1565 1565 1565 1564 1563 1562 1561 1559 1558 1556 1554 1553 1551 1549 1546 1543 1541 1540 1540 1539 1538 1537 1536 1536 1535 1534 1534 1535
1566 1566 1566 1566 1566 1566 1566 1565 1566 1565 1566 1566 1566 1566 1566 1568 1566 1565 1565 1564 1563 1562 1560 1558 1557 1555 1553 1551 1549 1546 1542 1539 1540 1540 1539 1539 1537 1536 1535 1534 1533 1533 1534
1566 1567 1566 1566 1566 1567 1567 1566 1566 1566 1566 1567 1567 1567 1567 1566 1566 1566 1565 1564 1563 1562 1561 1559 1557 1555 1554 1552 1550 1547 1544 1542 1541 1540 1540 1539 1538 1537 1535 1533 1531 1531 1533
1567 1567 1567 1567 1567 1567 1567 1567 1567 1567 1567 1567 1567 1567 1567 1567 1566 1566 1566 1565 1564 1562 1561 1560 1558 1556 1554 1552 1550 1548 1546 1543 1542 1541 1540 1539 1538 1537 1536 1534 1531 1531 1533
1567 1567 1567 1567 1567 1567 1567 1567 1567 1567 1567 1567 1567 1567 1567 1566 1566 1566 1565 1565 1564 1563 1561 1560 1558 1557 1555 1553 1551 1549 1547 1545 1543 1542 1540 1540 1539 1538 1537 1536 1534 1534 1535
1567 1567 1567 1567 1567 1567 1567 1567 1567 1567 1567 1567 1567 1566 1566 1566 1566 1565 1565 1564 1563 1563 1561 1560 1559 1557 1555 1553 1551 1549 1547 1545 1543 1542 1541 1540 1539 1538 1538 1537 1536 1536 1536
1567 1567 1567 1567 1567 1567 1567 1567 1567 1567 1567 1567 1566 1566 1566 1566 1565 1565 1564 1563 1562 1562 1561 1560 1559 1557 1555 1553 1551 1548 1546 1544 1543 1542 1541 1540 1539 1538 1538 1537 1536 1536 1535
1566 1566 1566 1566 1567 1567 1567 1567 1567 1567 1566 1566 1566 1566 1565 1565 1565 1564 1564 1563 1562 1561 1560 1560 1558 1557 1555 1553 1550 1548 1545 1544 1543 1542 1541 1540 1539 1538 1537 1536 1536 1535 1534
1565 1566 1566 1566 1566 1566 1566 1566 1566 1566 1566 1566 1565 1565 1565 1564 1564 1564 1563 1563 1562 1560 1560 1559 1558 1556 1554 1552 1550 1548 1546 1544 1543 1542 1541 1540 1539 1538 1537 1536 1535 1534 1533
1565 1565 1565 1565 1566 1566 1566 1566 1566 1566 1565 1565 1565 1564 1564 1564 1563 1563 1562 1562 1561 1561 1559 1558 1557 1556 1554 1552 1550 1548 1546 1544 1543 1542 1541 1539 1538 1537 1536 1534 1533 1532 1531
1563 1564 1564 1564 1565 1565 1565 1565 1565 1565 1565 1564 1564 1564 1563 1563 1563 1562 1562 1561 1560 1560 1558 1557 1556 1555 1553 1551 1549 1548 1546 1544 1542 1541 1540 1539 1537 1536 1534 1533 1532 1530 1529
1562 1562 1562 1563 1563 1564 1564 1564 1564 1564 1564 1563 1563 1563 1562 1562 1562 1561 1561 1560 1559 1558 1558 1556 1555 1554 1552 1550 1549 1547 1545 1543 1541 1540 1539 1537 1536 1534 1533 1531 1530 1529 1527
1560 1561 1561 1561 1562 1562 1562 1563 1563 1563 1563 1562 1562 1562 1561 1561 1560 1560 1559 1559 1558 1557 1556 1555 1553 1552 1551 1549 1547 1545 1544 1542 1540 1539 1537 1536 1534 1532 1531 1529 1528 1526 1525
1558 1559 1559 1560 1560 1560 1561 1561 1561 1561 1561 1561 1561 1560 1560 1560 1559 1559 1558 1557 1556 1556 1555 1553 1552 1551 1549 1547 1546 1544 1542 1540 1539 1537 1535 1534 1532 1530 1529 1527 1525 1524 1522
1556 1557 1557 1557 1558 1558 1559 1559 1559 1559 1559 1559 1559 1559 1558 1558 1557 1557 1556 1555 1555 1554 1553 1551 1550 1549 1547 1546 1544 1542 1540 1538 1536 1535 1533 1532 1530 1528 1526 1524 1523 1521 1519
1554 1554 1555 1555 1556 1556 1556 1557 1557 1557 1557 1557 1557 1556 1556 1556 1555 1555 1554 1553 1553 1552 1550 1549 1548 1547 1545 1544 1542 1540 1538 1536 1534 1533 1531 1529 1527 1525 1524 1522 1520 1518 1516
1551 1551 1552 1552 1553 1553 1554 1554 1554 1555 1555 1554 1554 1554 1554 1553 1553 1552 1552 1551 1550 1550 1549 1548 1546 1545 1543 1542 1540 1538 1536 1534 1532 1530 1528 1525 1524 1522 1520 1518 1516 1514 1513
1548 1548 1549 1550 1550 1551 1551 1551 1552 1552 1552 1552 1552 1551 1551 1551 1550 1550 1549 1548 1548 1547 1546 1545 1544 1542 1541 1539 1538 1536 1534 1531 1529 1528 1525 1522 1520 1518 1516 1514 1512 1510 1508
1545 1545 1546 1547 1547 1548 1548 1549 1549 1549 1549 1549 1549 1549 1548 1548 1548 1547 1546 1545 1544 1544 1543 1542 1541 1539 1538 1536 1535 1533 1530 1528 1525 1523 1522 1519 1516 1513 1511 1510 1508 1506 1504
1542 1542 1543 1543 1544 1545 1545 1545 1546 1546 1546 1546 1546 1546 1545 1545 1544 1544 1543 1542 1541 1540 1539 1538 1537 1536 1534 1533 1531 1529 1527 1525 1522 1519 1517 1515 1512 1510 1506 1504 1503 1502 1499